TimeCDT,TemperatureF,Dew PointF,Humidity,Sea Level PressureIn,VisibilityMPH,Wind Direction,Wind SpeedMPH,Gust SpeedMPH,PrecipitationIn,Events,Conditions,WindDirDegrees,DateUTC
12:51 AM,28.9,21.9,75,30.40,10.0,Calm,Calm,-,N/A,,Clear,0,2013-03-27 05:51:00
1:51 AM,28.0,19.9,72,30.40,10.0,Calm,Calm,-,N/A,,Partly Cloudy,0,2013-03-27 06:51:00
2:51 AM,27.0,19.9,75,30.38,10.0,Calm,Calm,-,N/A,,Partly Cloudy,0,2013-03-27 07:51:00
3:51 AM,26.1,21.0,81,30.38,10.0,Calm,Calm,-,N/A,,Partly Cloudy,0,2013-03-27 08:51:00
4:51 AM,26.1,19.9,78,30.38,10.0,Calm,Calm,-,N/A,,Partly Cloudy,0,2013-03-27 09:51:00
5:51 AM,26.1,19.9,78,30.40,10.0,Calm,Calm,-,N/A,,Scattered Clouds,0,2013-03-27 10:51:00
6:51 AM,25.0,19.9,81,30.40,10.0,Calm,Calm,-,N/A,,Scattered Clouds,0,2013-03-27 11:51:00
7:51 AM,28.0,21.9,78,30.41,9.0,Calm,Calm,-,N/A,,Mostly Cloudy,0,2013-03-27 12:51:00
8:51 AM,34.0,24.1,67,30.42,10.0,Calm,Calm,-,N/A,,Scattered Clouds,0,2013-03-27 13:51:00
9:51 AM,39.0,21.0,49,30.42,10.0,Calm,Calm,-,N/A,,Partly Cloudy,0,2013-03-27 14:51:00
10:51 AM,39.0,21.9,50,30.43,10.0,NNW,4.6,-,N/A,,Scattered Clouds,330,2013-03-27 15:51:00
11:51 AM,39.2,21.2,49,30.40,10.0,Variable,4.6,-,N/A,,Mostly Cloudy,0,2013-03-27 16:51:00
12:51 PM,42.1,21.9,45,30.43,10.0,West,4.6,-,N/A,,Mostly Cloudy,260,2013-03-27 17:51:00
1:51 PM,43.0,23.0,45,30.41,10.0,WNW,5.8,-,N/A,,Mostly Cloudy,300,2013-03-27 18:51:00
2:51 PM,44.1,23.0,43,30.38,10.0,NW,4.6,-,N/A,,Mostly Cloudy,310,2013-03-27 19:51:00
3:51 PM,45.0,24.1,44,30.36,10.0,NNW,3.5,-,N/A,,Mostly Cloudy,340,2013-03-27 20:51:00
4:51 PM,43.0,24.1,47,30.35,10.0,ENE,6.9,-,N/A,,Mostly Cloudy,70,2013-03-27 21:51:00
5:51 PM,43.0,24.1,47,30.35,10.0,ENE,8.1,-,N/A,,Mostly Cloudy,60,2013-03-27 22:51:00
6:51 PM,42.1,25.0,51,30.35,10.0,ENE,5.8,-,N/A,,Mostly Cloudy,60,2013-03-27 23:51:00
7:51 PM,41.0,25.0,53,30.34,10.0,ENE,5.8,-,N/A,,Overcast,70,2013-03-28 00:51:00
8:51 PM,39.9,26.1,58,30.35,10.0,East,4.6,-,N/A,,Mostly Cloudy,80,2013-03-28 01:51:00
9:51 PM,39.0,26.1,60,30.36,10.0,East,5.8,-,N/A,,Mostly Cloudy,90,2013-03-28 02:51:00
10:51 PM,39.0,27.0,62,30.37,10.0,East,5.8,-,N/A,,Overcast,80,2013-03-28 03:51:00
11:51 PM,39.0,27.0,62,30.37,10.0,East,6.9,-,N/A,,Overcast,90,2013-03-28 04:51:00